This is the latest recevied weather packets stored in our database for station/object NK7I. If no packets are shown the sender has not sent any weather packets the latest 10 day(s).
| Time | Temp. | Humidity | Pressure | Rain* | Wind** | Luminosity | Snow |
|---|---|---|---|---|---|---|---|
| 1777703183 | 11.67° C | 62% | 1015.4 hPa | 0 mm | - | 0 W/m² | - |
| 1777702883 | 11.67° C | 60% | 1015.2 hPa | 0 mm | - | 0 W/m² | - |
| 1777702583 | 11.67° C | 60% | 1015.2 hPa | 0 mm | - | 0 W/m² | - |
| 1777702283 | 11.67° C | 62% | 1015.2 hPa | 0 mm | - | 0 W/m² | - |
| 1777701982 | 11.67° C | 60% | 1015.2 hPa | 0 mm | - | 0 W/m² | - |
| 1777701682 | 11.67° C | 61% | 1015.1 hPa | 0 mm | - | 0 W/m² | - |
| 1777701382 | 11.67° C | 60% | 1015.1 hPa | 0 mm | - | 0 W/m² | - |
| 1777701082 | 12.22° C | 62% | 1015 hPa | 0 mm | - | 0 W/m² | - |
| 1777700782 | 12.22° C | 62% | 1014.9 hPa | 0 mm | - | 0 W/m² | - |
| 1777700483 | 12.78° C | 59% | 1014.9 hPa | 0 mm | - | 0 W/m² | - |
| 1777700183 | 12.78° C | 58% | 1014.8 hPa | 0 mm | - | 0 W/m² | - |
| 1777699883 | 12.78° C | 57% | 1014.9 hPa | 0 mm | - | 0 W/m² | - |
| 1777699583 | 13.33° C | 57% | 1014.9 hPa | 0 mm | - | 0 W/m² | - |
| 1777699282 | 13.33° C | 56% | 1014.8 hPa | 0 mm | - | 0 W/m² | - |
| 1777698982 | 13.33° C | 54% | 1014.8 hPa | 0 mm | - | 0 W/m² | - |
| 1777698682 | 13.89° C | 53% | 1014.9 hPa | 0 mm | - | 0 W/m² | - |
| 1777698382 | 13.89° C | 52% | 1014.9 hPa | 0 mm | - | 0 W/m² | - |
| 1777698083 | 14.44° C | 49% | 1014.8 hPa | 0 mm | - | 0 W/m² | - |
| 1777697783 | 14.44° C | 48% | 1014.8 hPa | 0 mm | - | 0 W/m² | - |
| 1777697482 | 14.44° C | 48% | 1014.7 hPa | 0 mm | - | 0 W/m² | - |
| 1777697182 | 15° C | 48% | 1014.8 hPa | 0 mm | - | 0 W/m² | - |
| 1777696883 | 15° C | 47% | 1014.7 hPa | 0 mm | - | 0 W/m² | - |
| 1777696582 | 15° C | 48% | 1014.7 hPa | 0 mm | - | 0 W/m² | - |
| 1777696282 | 15.56° C | 47% | 1014.6 hPa | 0 mm | - | 0 W/m² | - |
| 1777695982 | 15.56° C | 46% | 1014.5 hPa | 0 mm | - | 0 W/m² | - |
* Rain latest hour (hover to see other rain measurements)
** Current wind speed in m/s (hover to see current wind gust speed)